Showing default

FLOCK 4H 14, 66717

Orbit data source: Space-Track

FLOCK 4H 14, 66717 is a payload satellite owned by Planet (US) in SSO that was launched on Fri, 28 Nov 2025 UTC via an FALCON 9 launch vehicle from the Air Force Western Test Range (AFWTR). Payload-class satellites include a variety of spacecraft equipped with specific instruments for various scientific and technological missions. These include communications satellites like Starlink; space stations such as the ISS; scientific satellites like the Hubble; Earth observation satellites from companies like Planet Labs, Umbra, and HawkEye 360; GPS; miniature CubeSats for education and research; and military/defense satellites.

Loading next visibility...
Identifier
66717, 2025-276BD
Orbit
SSO
Country
Flag of USUS
Related business
Manufacturer
Planet
Mission
Operational Commercial Imaging
Bus & Motor
CUBESAT 3U, Unknown motor
Mass
5.7 kg wet, 5.7 kg dry
Launch date (UTC)
2025-11-28 (6 months ago)
Launch vehicle
FALCON 9
Launch site
Air Force Western Test Range (AFWTR)
Object type
Payload
Rocket body
Debris
Shape & HBR
Box + 2 Pan, 1.0 m
Radar Cross Section
0.072 m²

Expand to show TLE details & history
Last TLE update: 1 day ago

TLE from 1 day ago
0 FLOCK 4H 14
1 66717U 25276BD  26144.18369963  .00004914  00000-0  22667-3 0  9995
2 66717  97.4208 218.4185 0002009  72.7710 287.3745 15.20697894 26042
Epoch: 2026-05-24T04:24Z
TLE epoch observation values (Epoch: 2026-05-24T04:24:31.648Z)
Latitude
-0.00002°
Longitude
-89.50286°
Altitude
506.412 km
Speed
7.611 km/s
True Right ascension
14h 33m 40s
True Declination
0° 00' 00"
Sunlit
Object was in full shadow at epoch
Visualization orbit readout
Latitude
Unknown
Longitude
Unknown
Altitude
Unknown
Speed
Unknown
Apparent Right ascension
Unknown
Apparent Declination
Unknown
Sunlit
N/A
Visualization observer readout
Local Sidereal Time
13:39:11
Azimuth
Unknown
Elevation
Unknown
Doppler factor
Unknown
Orbital elements
Apogee altitude
502.082 km
Perigee altitude
499.318 km
Semi-major axis
6,878.837 km
Eccentricity
0.0002
Inclination
97.4208°
RAAN
218.4185°
Arg. of periapsis
72.771°
True anomaly
287.35253°
Mean anomaly
287.3745°
Eccentric anomaly
287.36351°
Mean motion
3.80426 °/min
Orbital period
94.63 mins
BSTAR
0.00022667
Loading maneuver chart data...
Computing Atmospheric mass density...
Loading historical data...
Loading historical data...
Loading historical data...
Loading historical data...
Loading historical data...
Loading historical data...
Loading historical data...

Documentation

Showing up to 5 results
|